Regional Weather Roundup
Issued by NWS

Current Version | Previous Version | Text Only | Print | Product List | Glossary Off
Versions: 1 2 3 4 5 6 7 8 9 10 11 12 13 14 15 16 17 18 19 20 21 22 23 24 25 26 27 28 29 30 31 32 33 34 35 36 37 38 39 40 41 42 43 44 45 46 47 48 49 50

000
ASUS44 KBMX 241410
RWRAL

ALABAMA REGIONAL WEATHER ROUNDUP
NATIONAL WEATHER SERVICE BIRMINGHAM AL
900 AM CDT SUN SEP 24 2017

NOTE: "FAIR" INDICATES FEW OR NO CLOUDS BELOW 12,000 FEET
WITH NO SIGNIFICANT WEATHER AND/OR OBSTRUCTIONS TO VISIBILITY.

THE REMARK "TC" DENOTES TEMPERATURE IN DEGREES CELSIUS.

ALZ001>011-014-016>018-020-241500-
NORTH ALABAMA

CITY           SKY/WX    TMP DP  RH WIND       PRES   REMARKS
MUSCLE SHOALS  SUNNY     75  67  76 E5        30.08S
HUNTSVILLE     MOSUNNY   74  69  85 E8        30.08R
DECATUR        SUNNY     73  70  90 SE6       30.08R
HALEYVILLE     FAIR      75  68  78 CALM      30.10R
GADSDEN        SUNNY     73  69  87 NE8       30.09S
$$

ALZ012-013-022-023-030>036-040>044-241500-
WEST CENTRAL ALABAMA

CITY           SKY/WX    TMP DP  RH WIND       PRES   REMARKS
TUSCALOOSA     SUNNY     78  71  79 E6        30.04S
DEMOPOLIS        N/A     75  68  79 NE3       30.02S
$$

ALZ015-024>026-033>036-041>044-241500-
CENTRAL ALABAMA

CITY           SKY/WX    TMP DP  RH WIND       PRES   REMARKS
BIRMINGHAM     MOSUNNY   75  66  73 E6        30.09S
MONTGOMERY     MOSUNNY   75  68  78 N6        30.03S
SHELBY CO ARPT SUNNY     74  68  81 VRB3      30.07R
MAXWELL AFB    MOSUNNY   73  69  86 NE6       30.03R
GREENVILLE     FAIR      78  67  68 E8        30.01S
SELMA          FAIR      75  68  78 E7        30.02S
PRATTVILLE     FAIR      75  69  81 NE6       30.03S
BESSEMER       FAIR      75  67  76 E8        30.08R
TALLADEGA      FAIR     N/A N/A N/A MISG      30.08S
PELL CITY      SUNNY     72  72 100 CALM      30.08S
MARION         FAIR      76  69  79 NE5       30.03R
SYLACAUGA      FAIR      72  72 100 CALM      30.07S
$$

ALZ019-021-028-029-037-038-045>048-241500-
EAST CENTRAL ALABAMA

CITY           SKY/WX    TMP DP  RH WIND       PRES   REMARKS
ANNISTON       MOSUNNY   70  66  87 NE6       30.09R
ALEXANDER CITY SUNNY     73  67  82 E5        30.07S
AUBURN         NOT AVBL
$$

ALZ051>064-241500-
SOUTHWEST ALABAMA

CITY           SKY/WX    TMP DP  RH WIND       PRES   REMARKS
MOBILE         PTSUNNY   75  70  84 NE12      29.99R
BROOKLEY FIELD MOSUNNY   79  73  82 E8        29.99R
EVERGREEN      SUNNY     76  70  82 NE7       30.01R
$$

ALZ049-050-065>069-241500-
SOUTHEAST ALABAMA

CITY           SKY/WX    TMP DP  RH WIND       PRES   REMARKS
DOTHAN         SUNNY     78  72  81 E7        30.03F
OZARK          SUNNY     74  71  89 NE8       30.00S
TROY           SUNNY     75  71  87 VRB6      30.03S
EUFAULA        FAIR      78  70  76 VRB5      30.02S
$$



USA.gov is the U.S. government's official web portal to all federal, state and local government web resources and services.